FW5287 Weather Reports


Display with metric or nautical units.
time (UTC)temp
F
wind
direction
speed
MPH
gust
MPH
rain 1hr
in
rain 24hr
in
rain mn
in
humidity
%
barometer
mb
20260504023044 55 360 4.0 5.0 0.00 0.00 0.00 52 1005.1
20260504021544 55 263 4.0 5.0 0.00 0.00 0.00 51 1005.0
20260504020043 56 360 4.0 6.0 0.00 0.00 0.00 48 1004.8
20260504014543 57 360 4.0 6.0 0.00 0.00 0.00 48 1004.8
20260504013040 59 360 5.0 8.0 0.00 0.00 0.00 46 1004.9
20260504011546 61 273 5.0 8.0 0.00 0.00 0.00 43 1004.8
20260504010043 64 360 5.0 6.0 0.00 0.00 0.00 39 1004.8
20260504004538 66 360 7.0 12.0 0.00 0.00 0.00 36 1004.7
20260504003043 68 360 11.0 15.0 0.00 0.00 0.00 34 1004.6
20260504001545 69 360 11.0 17.0 0.00 0.00 0.00 33 1004.8
20260504000037 69 360 13.0 20.0 0.00 0.00 0.00 32 1004.8
20260503234535 70 360 13.0 21.0 0.00 0.00 0.00 31 1004.6
20260503233034 70 360 15.0 22.0 0.00 0.00 0.00 30 1004.6
20260503231545 71 360 17.0 22.0 0.00 0.00 0.00 29 1004.6
20260503230031 71 360 15.0 19.0 0.00 0.00 0.00 30 1004.5
20260503224531 72 360 15.0 23.0 0.00 0.00 0.00 30 1004.5
20260503223128 72 360 14.0 22.0 0.00 0.00 0.00 30 1004.5
20260503221528 72 360 18.0 27.0 0.00 0.00 0.00 29 1004.4
20260503220035 72 360 11.0 20.0 0.00 0.00 0.00 31 1004.5
20260503214525 72 360 13.0 24.0 0.00 0.00 0.00 31 1004.6
20260503213037 72 360 16.0 23.0 0.00 0.00 0.00 31 1004.5
20260503211525 72 360 13.0 23.0 0.00 0.00 0.00 30 1004.6
20260503210024 73 360 17.0 28.0 0.00 0.00 0.00 30 1004.6
20260503204526 73 360 14.0 24.0 0.00 0.00 0.00 29 1004.7
20260503203024 72 360 16.0 25.0 0.00 0.00 0.00 30 1004.8
20260503201524 73 288 17.0 24.0 0.00 0.00 0.00 33 1004.7
20260503200020 72 360 16.0 28.0 0.00 0.00 0.00 30 1004.9
20260503194522 72 360 15.0 24.0 0.00 0.00 0.00 33 1004.8
20260503193018 72 360 14.0 24.0 0.00 0.00 0.00 33 1005.0
20260503191515 72 360 14.0 26.0 0.00 0.00 0.00 35 1004.9
20260503190013 71 360 18.0 28.0 0.00 0.00 0.00 37 1005.1
20260503184511 71 360 16.0 23.0 0.00 0.00 0.00 37 1005.0
20260503183009 72 360 12.0 24.0 0.00 0.00 0.00 38 1005.1
20260503181507 70 360 16.0 26.0 0.00 0.00 0.00 41 1005.2
20260503180018 70 346 17.0 27.0 0.00 0.00 0.00 41 1005.4
20260503174515 70 360 18.0 30.0 0.00 0.00 0.00 43 1005.5
20260503173004 70 360 15.0 25.0 0.00 0.00 0.00 44 1005.3
20260503171503 69 284 17.0 23.0 0.00 0.00 0.00 44 1005.4
20260503090106 51 360 20.0 25.0 0.00 0.00 0.00 67 1010.0
20260503081557 52 360 19.0 24.0 0.00 0.00 0.00 61 1010.4
20260503071603 53 360 15.0 22.0 0.00 0.00 0.00 55 1010.7
20260503054535 50 360 11.0 16.0 0.00 0.00 0.00 57 1011.5
20260503053029 50 360 10.0 15.0 0.00 0.00 0.00 57 1011.7
20260503051536 50 215 10.0 14.0 0.00 0.00 0.00 56 1011.8
20260503050024 50 360 12.0 15.0 0.00 0.00 0.00 56 1012.0
20260503044523 50 217 9.0 12.0 0.00 0.00 0.00 57 1011.9
20260503043024 50 360 9.0 12.0 0.00 0.00 0.00 57 1012.0
20260503041527 51 360 10.0 14.0 0.00 0.00 0.00 55 1012.2
20260503040018 51 211 8.0 10.0 0.00 0.00 0.00 55 1012.4
20260503034516 51 360 9.0 12.0 0.00 0.00 0.00 55 1012.5
20260503033014 51 217 9.0 11.0 0.00 0.00 0.00 55 1012.7
20260503031513 50 360 7.0 9.0 0.00 0.00 0.00 57 1013.0
20260503030020 51 229 7.0 8.0 0.00 0.00 0.00 56 1013.1
20260503024511 52 221 7.0 9.0 0.00 0.00 0.00 55 1013.1